Weather History for Buffalo, WY

Change the Weather History Date:

Wednesday, December 19, 2012

  Actual Average Record
Temperature  
Mean Temperature 17 °F 25 °F  
Max Temperature 27 °F 36 °F 60 °F (2004)
Min Temperature 7 °F 15 °F -12 °F (1998)
Degree Days  
Heating Degree Days 48 40  
Month to date heating degree days 634 748  
Since 1 July heating degree days 2191 2582  
Moisture  
Dew Point -2 °F    
Average Humidity 45    
Maximum Humidity 58    
Minimum Humidity 32    
Precipitation  
Precipitation 0.00 in 0.02 in 0.04 in (1999)
Month to date precipitation 0.01 0.27  
Year to date precipitation 8.83 13.32  
Sea Level Pressure  
Sea Level Pressure 30.08 in    
Wind  
Wind Speed 8 mph (WNW)    
Max Wind Speed 21 mph    
Max Gust Speed 25 mph    
Visibility 10 miles    
Events      
T = Trace of Precipitation, MM = Missing Value Source: NWS Daily Summary

Daily Weather History Graph

Daily Weather History Graph

Search for Another Location

Airport:

Trip Planner

Search our weather history database for the weather conditions in past years. The results will help you decide how hot, cold, wet, or windy it might be!

Date:

Astronomy

Dec. 19, 2012 Rise Set
Actual Time 7:39 AM MST 4:29 PM MST
Civil Twilight 7:05 AM MST 5:03 PM MST
Nautical Twilight 6:28 AM MST 5:39 PM MST
Astronomical Twilight 5:53 AM MST 6:15 PM MST
Moon 11:34 AM MST (12/19) No Moon Set
Length of Visible Light 9h 57m
Length of Day
8h 50m
Waxing Crescent, 45% of the Moon is Illuminated
Dec 19
Waxing Crescent
Dec 19
First Quarter
Dec 28
Full
Jan 4
Last Quarter
Jan 11
New

Hourly Weather History & Observations

Time (MST) Temp. Windchill Dew Point Humidity Pressure Visibility Wind Dir Wind Speed Gust Speed Precip Events Conditions
12:53 AM 14.0 °F 3.9 °F -0.9 °F 52% 29.88 in 10.0 mi WSW 6.9 mph - N/A   Clear
1:53 AM 12.0 °F 4.1 °F -0.9 °F 56% 29.89 in 10.0 mi NW 4.6 mph - N/A   Clear
2:53 AM 15.1 °F 4.2 °F -0.0 °F 51% 29.91 in 10.0 mi WSW 8.1 mph - N/A   Clear
3:53 AM 15.1 °F 4.2 °F -2.0 °F 47% 29.94 in 10.0 mi West 8.1 mph - N/A   Clear
4:53 AM 12.0 °F 1.5 °F -2.0 °F 53% 29.96 in 10.0 mi WSW 6.9 mph - N/A   Clear
5:53 AM 12.0 °F 0.5 °F -4.0 °F 49% 30.01 in 10.0 mi NNW 8.1 mph - N/A   Clear
6:53 AM 9.0 °F -4.2 °F -4.0 °F 56% 30.05 in 10.0 mi NNW 9.2 mph - N/A   Clear
7:53 AM 12.9 °F -1.6 °F -5.1 °F 45% 30.06 in 10.0 mi WNW 12.7 mph - N/A   Clear
8:53 AM 16.0 °F 5.3 °F -2.9 °F 43% 30.07 in 10.0 mi West 8.1 mph - N/A   Clear
9:53 AM 23.0 °F 15.8 °F -0.0 °F 37% 30.09 in 10.0 mi NNW 5.8 mph - N/A   Clear
10:53 AM 24.1 °F 10.6 °F -0.0 °F 35% 30.09 in 10.0 mi North 17.3 mph 23.0 mph N/A   Clear
11:53 AM 25.0 °F 11.7 °F -0.0 °F 34% 30.07 in 10.0 mi NNW 17.3 mph 25.3 mph N/A   Clear
12:53 PM 26.1 °F 15.6 °F 1.0 °F 34% 30.08 in 10.0 mi NNW 11.5 mph 23.0 mph N/A   Clear
1:53 PM 23.0 °F 15.8 °F -0.0 °F 37% 30.10 in 10.0 mi NNW 5.8 mph - N/A   Clear
2:53 PM 26.1 °F 15.6 °F -0.0 °F 32% 30.10 in 10.0 mi NW 11.5 mph - N/A   Mostly Cloudy
3:53 PM 23.0 °F 13.9 °F -0.9 °F 35% 30.13 in 10.0 mi NNW 8.1 mph - N/A   Clear
4:53 PM 19.9 °F - -2.0 °F 38% 30.16 in 10.0 mi Calm Calm - N/A   Clear
5:53 PM 19.0 °F 13.9 °F -2.0 °F 40% 30.18 in 10.0 mi SSW 3.5 mph - N/A   Clear
6:53 PM 17.1 °F 10.0 °F -4.0 °F 39% 30.20 in 10.0 mi SSW 4.6 mph - N/A   Clear
7:53 PM 12.0 °F 1.5 °F -5.1 °F 46% 30.21 in 10.0 mi SW 6.9 mph - N/A   Clear
8:53 PM 12.9 °F 2.6 °F -4.0 °F 47% 30.20 in 10.0 mi WSW 6.9 mph - N/A   Clear
9:53 PM 12.0 °F 0.5 °F -6.0 °F 44% 30.17 in 10.0 mi SW 8.1 mph - N/A   Clear
10:53 PM 14.0 °F 3.9 °F -6.0 °F 41% 30.15 in 10.0 mi SW 6.9 mph - N/A   Clear
11:53 PM 16.0 °F 8.8 °F -9.0 °F 32% 30.14 in 10.0 mi South 4.6 mph - N/A   Clear